This demonstration page uses our WeatherBlox Daily Observations layout. Learn more.

Left ArrowRight Arrow

41.12389, -100.76542

Hourly Observations for January 7, 2018

Temp ( °F °C ) Dew Point ( °F °C ) Humidity (%) Winds ( mph kmh ) Pressure ( in mb ) Visibility ( mi km ) Precip ( " mm )
12:53 am 00:53 Clear 25 -3.9 16 -8.9 69 69 WSW 5 7 29.95 1014 10 16 0.00 0.00
1:53 am 01:53 Clear 22 -5.6 15 -9.4 75 75 SSW 3 6 29.93 1014 10 16 0.00 0.00
2:53 am 02:53 Clear 24 -4.4 17 -8.3 75 75 W 3 6 29.93 1014 10 16 0.00 0.00
3:53 am 03:53 Clear 24 -4.4 18 -7.8 77 77 NNW 6 9 29.93 1014 10 16 0.00 0.00
4:53 am 04:53 Mostly Cloudy 24 -4.4 18 -7.8 77 77 NW 7 11 29.93 1014 9 14 0.00 0.00
5:53 am 05:53 Cloudy 30 -1.1 22 -5.6 72 72 VRB 3 6 29.91 1013 10 16 0.00 0.00
6:53 am 06:53 Clear 36 2.2 30 -1.1 79 79 WNW 10 17 29.95 1014 10 16 0.00 0.00
7:53 am 07:53 Mostly Cloudy 33 0.6 29 -1.7 85 85 WNW 9 15 29.97 1015 10 16 0.00 0.00
8:53 am 08:53 Cloudy 33 0.6 29 -1.7 85 85 WNW 8 13 30.00 1016 10 16 0.00 0.00
9:53 am 09:53 Sunny 37 2.8 31 -0.6 79 79 W 10 17 30.01 1016 10 16 0.00 0.00
10:53 am 10:53 Sunny 40 4.4 31 -0.6 70 70 W 12 19 30.02 1017 10 16 0.00 0.00
11:53 am 11:53 Partly Cloudy 41 5 31 -0.6 67 67 W 13 20 30.02 1017 10 16 0.00 0.00
12:53 pm 12:53 Mostly Sunny 43 6.1 31 -0.6 63 63 W 9 15 30.00 1016 10 16 0.00 0.00
1:53 pm 13:53 Sunny 43 6.1 31 -0.6 63 63 WNW 15 24 30.00 1016 10 16 0.00 0.00
2:53 pm 14:53 Sunny 46 7.8 33 0.6 61 61 NW 15 24 29.99 1016 10 16 0.00 0.00
3:53 pm 15:53 Sunny 46 7.8 33 0.6 61 61 NNW 13 20 30.01 1016 10 16 0.00 0.00
4:53 pm 16:53 Sunny 44 6.7 32 0 63 63 NW 8 13 30.04 1017 10 16 0.00 0.00
5:53 pm 17:53 Clear 34 1.1 29 -1.7 82 82 WNW 9 15 30.07 1018 10 16 0.00 0.00
6:53 pm 18:53 Clear 33 0.6 28 -2.2 82 82 WNW 6 9 30.09 1019 10 16 0.00 0.00
7:53 pm 19:53 Clear 30 -1.1 27 -2.8 88 88 NNW 3 6 30.11 1020 10 16 0.00 0.00
8:53 pm 20:53 Clear 29 -1.7 25 -3.9 85 85 WSW 6 9 30.13 1020 10 16 0.00 0.00
9:53 pm 21:53 Clear 25 -3.9 23 -5 92 92 WNW 5 7 30.13 1020 10 16 0.00 0.00
10:53 pm 22:53 Clear 24 -4.4 21 -6.1 88 88 W 6 9 30.14 1021 10 16 0.00 0.00
11:53 pm 23:53 Clear 23 -5 20 -6.7 88 88 WNW 6 9 30.15 1021 10 16 0.00 0.00

Powered by AerisWeather